Terug naar catalogus

STARLINK-35039

ActiefCommunicatieSSO
NORAD 65451·PAYLOAD·🇺🇸 United States

Gelanceerd Sep 3, 2025 vanaf Vandenberg Space Force Base

Loading…

Volgende Passages (komende 24 uur)

TLE

VersSource: CelesTrak SupGP

Epoch: Sep 15, 2026, 02:29 UTC

1 65451C 25194T   26258.10395833 -.00008697  00000+0 -26996-3 0  2581
2 65451  97.2843 107.8276 0001734  92.1819 180.0241 15.33445187    10

Volg STARLINK-35039 in realtime met AllMySat

Download on the App Store